Flag for U.S.A. Weather past 2 weeks in Jefferson City, Missouri, U.S.A.

Now
53 °F

Sunny.


Feels Like: 48 °F
Forecast: 14 / 51 °F
Wind: 17 mph from Southwest

Location: Jefferson City Memorial Airport

Current Time: Mar 6, 2015 at 3:00:06 PM

Latest Report: Mar 6, 2015 at 1:53 PM


Visibility: 10 mi

Pressure: 30.27 "Hg

Humidity: 32%

Dew point: 24 °F

Location of Jefferson CityLocation

Historic Weather in Jefferson City — Graph

°F

Jefferson City temperature yesterday

Maximum temperature yesterday: 29 °F (at 3:53 PM)
Minimum temperature yesterday: 17 °F (at 6:53 AM)
Average temperature yesterday: 22 °F

Past Weeks' High & Low Weather Summary

 TemperatureHumidityPressure
High53 °F (Mar 6, 1:53 PM)96% (Feb 20, 11:02 PM)30.79 "Hg (Feb 20, 11:02 PM)
Low3 °F (Feb 27, 6:53 AM)27% (Feb 23, 3:53 PM)29.76 "Hg (Feb 25, 2:53 PM)
Average25 °F64%30.29 "Hg
* Reported Feb 19 1:53 PM — Mar 6 1:53 PM, Jefferson City, Weather by CustomWeather, © 2015

Note: Actual official high and low records may vary slightly from our data, if they occured in-between our weather recording intervals... More about our weather records

Advertising

Jefferson City weather history for previous 24 hours

 ConditionsComfort  
Time TempWeatherWind HumidityBarometerVisibility
1:53 PM
Fri, Mar 6
53 °FSunny.17 mph32%30.27 "Hg10 mi
12:53 PM50 °FSunny.18 mph35%30.30 "Hg10 mi
11:53 AM46 °FSunny.13 mph37%30.34 "Hg10 mi
10:53 AM42 °FSunny.16 mph39%30.36 "Hg10 mi
9:53 AM37 °FSunny.13 mph44%30.39 "Hg10 mi
8:53 AM30 °FSunny.10 mph51%30.42 "Hg10 mi
7:53 AM25 °FSunny.9 mph58%30.43 "Hg10 mi
6:53 AM19 °FSunny.8 mph65%30.44 "Hg10 mi
5:53 AM17 °FClear.7 mph70%30.47 "Hg10 mi
4:53 AM16 °FClear.7 mph74%30.48 "Hg10 mi
3:53 AM18 °FClear.5 mph68%30.49 "Hg10 mi
2:53 AM18 °FClear.5 mph68%30.50 "Hg10 mi
1:53 AM17 °FClear.5 mph70%30.52 "Hg10 mi
12:53 AM17 °FClear.5 mph74%30.53 "Hg10 mi
11:53 PM
Thu, Mar 5
18 °FClear.5 mph71%30.55 "Hg10 mi
10:53 PM19 °FClear.6 mph65%30.56 "Hg10 mi
9:53 PM20 °FClear.3 mph62%30.57 "Hg10 mi
8:53 PM21 °FClear.No wind62%30.57 "Hg10 mi
7:53 PM23 °FClear.No wind55%30.56 "Hg10 mi
6:53 PM26 °FClear.No wind46%30.55 "Hg10 mi
5:53 PM27 °FSunny.5 mph41%30.55 "Hg10 mi
4:53 PM29 °FSunny.5 mph38%30.54 "Hg10 mi
3:53 PM29 °FSunny.7 mph38%30.54 "Hg10 mi
Weather by CustomWeather, © 2015

See weather overviewHow to use our weather pages